RH
47 51 51 47 48 52 61 69 70 71 69 62 59 58 56 55 53 51 49 49 48 44 43 44 45 46 46 45 44 43 42 41 40 40 41 41 40 40 40 40 40 39 39 38 38 37 37 37 36 36 36 37 37 37 37 35 33 32 32 32 31 28 26 26 27 27 26 23 22 20 19 16 14 13 11 11 11 11 11 11 13 14 15 17 20
47 51 52 49 50 51 55 61 64 68 69 68 65 61 59 58 56 54 54 56 58 57 53 49 47 49 50 49 48 48 48 48 46 45 45 44 43 42 42 42 41 40 39 38 39 38 38 37 36 35 35 36 37 38 38 38 38 38 37 37 37 35 33 31 30 31 31 30 28 26 24 21 19 16 14 12 12 11 11 11 12 13 13 14 15
52 55 53 49 51 52 54 63 69 70 67 67 68 66 64 63 60 58 58 59 61 63 63 60 57 56 55 54 53 52 52 53 53 52 50 49 48 46 45 43 42 41 40 40 40 41 41 40 39 38 36 35 36 37 38 38 38 38 37 36 36 37 37 35 33 32 32 33 31 29 27 24 22 20 18 17 15 14 13 12 12 13 14 15 16
58 61 57 54 53 52 57 66 75 78 74 69 69 70 70 71 68 65 63 63 64 64 65 65 65 64 64 62 60 56 56 56 56 56 55 55 55 56 55 53 50 48 46 46 46 46 46 46 45 45 44 42 40 40 40 40 39 37 36 36 35 34 35 35 34 31 30 30 30 29 28 26 24 22 21 21 20 19 16 15 13 13 14 15 17
50 54 59 63 62 61 65 67 70 77 80 78 76 73 72 74 75 74 71 69 69 69 67 66 66 66 67 69 68 66 64 64 63 63 62 61 60 61 62 62 61 59 55 52 50 50 50 49 48 47 48 48 47 45 44 43 43 42 41 41 39 38 38 37 36 34 31 28 26 25 24 24 24 23 22 23 23 23 22 19 17 15 14 14 16
52 49 54 63 69 74 74 70 68 71 73 76 81 81 78 76 76 76 77 75 73 73 71 69 69 68 68 70 72 72 73 73 73 72 70 70 68 64 63 64 65 65 62 58 54 52 50 47 46 46 48 50 51 50 48 45 44 44 44 44 42 42 41 41 40 38 35 30 27 25 23 21 21 21 21 22 23 24 25 24 23 21 17 15 15
60 55 53 58 67 74 75 75 77 77 75 75 78 82 83 83 81 80 81 79 76 74 72 70 71 73 72 70 69 71 73 75 76 76 77 78 77 72 68 66 66 66 64 60 56 53 50 47 44 44 45 47 49 50 50 48 47 45 44 43 42 42 42 42 41 40 37 33 30 28 25 22 20 20 19 18 19 21 22 25 26 26 24 20 17
54 55 55 57 63 66 67 71 79 85 86 81 77 76 78 82 86 88 87 84 78 73 70 69 70 71 72 72 70 70 71 71 73 74 77 82 82 76 72 69 68 67 65 62 59 57 55 52 48 46 45 44 43 44 46 46 46 45 44 43 42 42 41 40 40 39 39 37 33 30 27 24 22 21 19 18 17 17 18 20 24 26 28 27 24
48 50 53 60 69 70 66 67 74 81 82 77 72 71 70 72 78 81 81 80 74 68 66 65 65 66 68 70 71 72 72 71 71 70 74 80 81 76 74 73 72 71 69 66 65 63 61 58 56 54 51 46 44 44 45 45 43 42 41 42 43 43 42 41 40 40 40 39 36 33 29 26 23 22 22 21 20 19 18 18 19 21 24 27 29
47 48 49 54 61 63 59 59 64 69 70 67 65 63 63 64 66 67 67 66 65 64 64 62 61 62 63 64 65 68 70 72 71 68 69 73 74 73 75 77 77 77 74 71 69 66 63 60 58 57 54 50 48 49 49 47 45 43 42 42 43 43 42 41 41 41 40 39 38 37 33 29 27 25 23 22 22 22 22 20 19 19 19 21 25
45 45 45 45 45 46 49 51 55 59 60 59 57 56 58 60 62 63 65 65 66 66 64 60 59 60 61 61 60 63 67 69 70 68 67 67 67 67 69 70 72 73 72 71 71 68 63 58 56 56 56 54 53 54 54 52 49 48 45 43 43 42 41 41 41 41 41 40 40 40 38 33 31 29 27 24 23 22 22 23 22 21 21 20 20
45 44 44 43 43 43 45 49 53 54 53 52 51 53 55 56 58 60 62 64 63 59 56 54 54 54 55 56 56 58 62 63 64 64 64 63 64 64 63 63 64 65 64 65 66 66 64 63 61 60 61 61 62 62 62 57 53 50 47 45 44 42 41 41 41 41 40 39 40 41 40 36 33 31 29 27 26 24 23 23 23 23 23 22 21
45 44 43 43 44 43 43 44 45 44 44 44 46 48 49 49 51 53 54 55 54 51 50 49 49 50 51 52 54 57 59 59 58 58 58 60 62 64 63 63 63 62 61 60 59 59 62 65 66 62 61 62 61 60 61 60 56 53 49 46 43 39 38 41 44 44 44 43 43 42 41 38 35 33 31 30 28 27 25 24 23 23 22 22 21
44 43 42 43 44 45 45 44 41 40 39 38 38 40 42 43 44 45 47 49 49 49 48 48 49 51 53 53 53 53 54 52 50 48 48 50 53 56 56 57 58 59 59 58 58 62 68 70 67 62 58 57 56 57 60 61 61 58 51 44 39 35 37 44 48 51 51 50 47 43 42 42 41 38 35 31 30 29 27 25 25 24 23 21 21
49 47 45 44 46 48 49 49 47 44 41 38 37 37 39 41 42 42 43 44 47 47 47 47 49 51 52 53 51 48 46 44 43 42 43 42 43 44 47 51 54 56 57 56 59 64 68 66 64 63 63 62 63 65 65 65 66 62 53 45 41 37 40 45 49 51 52 50 47 45 44 45 46 44 39 34 31 31 30 28 27 26 25 24 22
53 53 50 49 49 51 52 52 50 48 44 41 39 38 37 39 40 40 39 39 40 41 42 43 44 45 48 50 47 43 39 37 37 39 42 43 43 43 46 51 54 55 55 54 53 55 58 59 63 69 72 71 68 66 62 60 59 55 50 47 43 40 42 46 47 48 48 46 47 46 44 43 44 43 40 36 33 33 32 30 29 28 28 26 23
57 58 56 54 53 53 53 54 53 51 48 44 40 38 37 37 37 37 37 36 36 36 36 37 37 38 42 45 45 41 37 34 34 35 36 37 37 38 41 45 48 49 48 47 45 45 48 52 55 57 57 54 51 46 44 44 45 44 45 44 41 40 44 47 46 45 44 44 46 46 45 43 41 40 38 36 34 32 31 29 28 28 28 27 25
62 61 60 59 58 56 56 57 57 56 54 50 46 42 41 39 39 38 37 37 36 36 35 34 32 33 36 41 44 43 40 38 36 36 36 35 34 34 36 41 44 45 44 44 43 42 43 44 44 43 41 39 37 37 37 39 40 42 43 42 42 45 48 48 47 46 45 45 46 45 43 41 39 37 36 34 33 32 30 29 29 28 28 28 27
69 66 63 62 62 61 61 62 61 59 57 53 48 45 44 43 41 39 39 38 37 36 35 35 33 33 35 39 41 42 41 41 40 40 41 40 40 42 44 47 48 47 46 45 45 44 42 42 41 40 38 37 37 37 37 40 45 49 49 48 49 50 49 47 46 44 42 40 40 38 38 38 38 37 36 35 34 33 31 30 30 30 30 30 30
77 73 69 66 65 66 66 65 63 60 58 55 51 48 45 44 42 41 40 40 38 36 35 35 36 38 38 38 38 38 40 42 44 45 45 44 44 46 48 48 47 46 46 45 44 43 42 41 40 39 39 38 38 36 36 40 48 52 52 50 49 47 45 44 44 42 39 38 37 36 36 38 40 40 38 36 34 33 33 34 34 34 33 33 32
81 78 75 72 71 71 71 70 68 64 60 55 51 48 46 44 43 41 42 41 40 37 35 34 36 40 41 40 39 39 40 42 44 45 44 43 44 45 46 45 43 42 44 44 43 42 40 40 40 41 40 39 38 37 37 41 46 49 50 49 47 45 42 41 40 39 39 39 40 40 41 41 41 39 37 36 36 37 39 39 38 36 36 36 36
78 78 78 77 76 76 77 76 72 68 62 54 49 50 50 48 45 44 43 42 40 38 36 34 35 38 42 45 45 44 44 45 46 47 47 47 47 48 47 44 42 43 45 46 45 43 43 43 42 41 39 38 37 37 39 42 45 48 48 47 45 42 39 37 37 39 41 42 43 43 41 40 38 37 37 39 41 43 43 41 39 38 37 37 37
67 69 72 74 74 73 74 75 72 69 65 58 53 51 50 49 50 51 49 47 44 41 40 39 37 39 44 48 49 48 48 48 49 50 52 53 53 51 49 47 46 45 46 47 48 46 45 44 42 40 39 38 38 40 43 45 46 45 44 43 43 42 41 41 43 46 47 46 44 40 38 37 37 38 40 43 45 45 45 43 41 39 37 37 36
56 58 61 65 67 67 68 70 72 72 70 65 59 53 51 50 51 53 55 53 49 45 42 40 40 43 47 51 53 52 51 51 52 52 53 54 54 53 51 50 48 47 49 50 49 47 45 42 40 39 39 39 40 42 43 43 42 42 42 44 45 46 47 49 51 53 52 48 44 40 39 40 41 41 42 42 42 42 44 45 43 40 40 40 39
57 55 56 58 61 64 65 66 67 69 69 66 61 56 54 53 52 53 56 55 51 46 42 41 42 45 49 51 54 55 55 53 52 52 52 52 52 52 51 50 49 49 51 50 46 43 42 39 36 36 38 39 40 40 40 40 41 44 46 49 50 52 53 53 54 53 51 47 44 42 42 43 43 43 42 41 40 41 43 44 43 42 42 41 40
57 57 55 55 56 58 62 64 65 65 66 65 61 58 57 58 57 57 56 55 51 47 42 41 44 49 54 57 60 60 59 55 52 51 52 52 52 51 49 48 48 48 46 42 39 36 34 32 33 36 38 39 40 41 43 45 46 48 51 53 53 53 51 49 47 45 44 42 41 41 41 40 41 42 41 40 40 41 42 43 43 42 42 41 39
56 56 55 55 54 53 55 59 61 63 64 62 60 59 59 60 62 61 58 55 52 48 44 46 53 61 67 70 67 60 55 52 50 49 50 51 52 50 47 44 42 38 33 29 28 28 29 33 36 37 38 40 43 45 47 47 48 49 50 49 45 42 40 38 37 37 37 37 37 36 35 35 35 35 36 36 38 39 41 41 41 41 42 41 40
52 52 52 54 54 52 51 51 53 57 59 59 58 58 59 60 61 60 58 55 53 51 49 50 52 56 59 60 59 58 58 58 56 54 52 51 48 44 40 36 31 27 24 24 27 30 33 35 36 39 42 46 48 48 48 48 47 44 40 36 33 30 30 30 31 32 33 34 34 34 34 34 35 36 37 38 39 40 41 41 41 41 42 42 41
50 50 51 52 52 51 50 49 49 50 52 54 54 53 55 58 58 55 54 54 52 52 51 50 48 47 47 48 51 57 63 63 59 54 49 45 41 36 31 29 28 27 28 31 34 37 38 39 42 46 50 51 49 47 44 41 37 33 30 29 29 31 32 34 36 38 39 39 40 40 40 41 42 42 43 43 43 44 44 43 42 42 43 44 44
46 48 49 49 51 51 50 49 49 49 50 52 51 50 52 53 52 51 53 54 53 53 53 51 47 44 44 44 45 48 53 54 50 45 41 38 36 34 31 30 32 34 37 40 42 42 43 47 50 52 51 48 44 39 35 32 31 32 34 36 38 40 42 43 44 45 45 46 46 46 46 46 47 48 48 48 47 47 47 47 48 49 50 51 52
43 45 46 47 49 50 51 51 51 50 50 50 50 50 52 51 50 52 55 55 55 55 52 48 43 40 40 42 43 43 45 45 44 41 38 35 36 37 38 38 40 42 44 45 46 47 50 52 53 49 44 40 36 33 33 35 37 39 40 41 42 44 45 45 46 46 47 48 49 49 50 50 50 52 52 53 53 55 57 59 61 62 63 66 68
47 47 48 48 49 52 54 55 54 51 51 52 54 55 54 53 52 54 56 56 56 55 50 45 42 40 40 41 42 42 44 47 46 42 39 39 42 44 45 46 46 47 48 49 50 52 53 50 46 40 37 35 35 36 38 39 39 40 40 40 41 43 44 44 46 47 49 51 52 53 55 57 59 61 63 65 67 70 73 76 78 80 81 83 85
47 51 52 52 52 52 52 53 53 51 50 54 59 58 53 50 49 51 55 55 54 52 50 46 42 41 41 43 45 47 49 50 48 45 46 48 49 47 47 49 50 51 54 55 53 50 46 42 38 36 36 36 36 36 36 36 37 39 40 41 42 44 47 49 51 54 56 59 61 64 66 69 72 75 78 81 83 85 88 90 91 92 93 93 93
44 49 53 55 56 55 53 53 53 50 48 53 58 57 50 47 48 50 52 53 52 51 48 44 41 42 43 48 53 54 51 48 47 49 51 53 50 48 49 53 55 58 58 53 45 40 38 36 36 36 35 33 33 33 34 36 39 41 43 45 48 51 53 56 60 64 68 72 75 77 80 84 87 90 92 93 94 96 97 97 97 97 97 96 96
42 45 49 54 59 60 57 56 55 53 51 53 57 56 52 49 50 52 53 54 53 50 45 42 43 45 49 57 62 59 53 51 53 52 51 51 52 53 55 58 59 59 53 43 35 34 37 37 36 33 31 31 32 34 36 39 41 44 47 51 54 58 62 67 72 77 82 85 87 89 92 95 96 97 98 98 99 100 99 99 98 98 97 97 97
44 42 43 48 53 56 58 60 61 59 57 58 58 57 53 50 50 50 50 49 47 44 44 47 48 49 55 63 62 55 52 54 55 53 52 54 57 59 61 62 59 51 42 35 34 37 37 35 31 29 30 32 34 35 37 41 45 48 51 55 61 67 73 79 84 88 91 92 93 95 97 98 99 99 99 99 99 98 97 97 97 97 96 96 96
47 45 43 42 42 43 50 57 60 58 58 58 56 54 51 48 45 43 42 43 43 43 47 51 53 56 63 65 58 53 56 59 58 56 57 59 61 64 66 60 50 42 39 40 39 37 33 30 29 29 31 33 34 36 39 44 47 48 52 60 69 77 84 89 92 94 96 97 98 99 99 99 99 99 98 98 97 97 96 96 95 95 94 93 93
49 49 48 47 44 41 43 52 58 57 56 54 52 49 46 42 41 40 40 42 48 51 53 54 59 67 71 67 62 62 65 64 61 61 62 66 71 73 66 53 45 46 48 44 36 30 29 28 29 31 33 33 34 37 40 42 43 45 51 64 76 85 90 94 95 97 98 99 100 101 100 99 99 99 99 98 98 97 96 94 93 93 92 91 89
49 50 50 50 48 43 42 47 51 50 48 45 41 41 43 44 45 43 42 46 55 62 64 68 74 77 75 70 70 71 70 68 69 73 76 80 79 70 57 49 50 53 50 38 28 26 28 29 30 32 33 34 35 36 38 39 40 43 51 65 80 90 94 96 97 98 100 101 101 100 100 99 99 100 99 99 97 95 95 95 94 93 93 92 91
58 55 53 51 49 43 42 45 44 43 48 52 48 44 45 47 46 47 53 62 72 79 83 85 85 82 77 74 74 75 76 79 83 83 80 75 66 56 50 51 54 52 42 31 25 25 28 29 31 33 33 33 34 35 35 36 40 44 52 65 81 91 95 97 98 99 100 101 100 100 100 99 99 100 99 98 95 94 95 94 93 91 91 92 93
74 67 62 60 54 48 46 47 44 45 58 69 63 51 48 51 55 65 79 88 93 94 93 87 82 80 79 77 78 82 87 88 83 75 66 59 54 51 52 53 50 43 34 26 24 26 28 30 31 32 32 32 32 33 34 37 40 43 49 62 78 90 96 98 99 100 100 100 100 100 100 99 99 100 99 96 95 94 94 93 92 93 94 95 96
81 75 71 68 65 59 55 53 52 53 59 64 62 61 66 74 82 90 97 99 97 93 88 83 83 85 84 82 84 88 86 78 68 59 53 51 51 52 51 47 42 35 27 24 25 28 29 30 31 31 31 30 31 32 33 36 39 41 45 57 74 89 96 98 99 100 100 99 100 100 99 98 99 99 97 95 95 95 95 93 93 94 97 98 99
76 72 70 68 66 63 60 58 60 63 66 70 76 84 91 95 97 100 101 97 92 88 86 87 91 94 90 87 86 81 71 62 57 54 51 50 50 48 44 40 35 30 25 23 26 28 30 30 30 30 30 30 30 32 33 35 38 39 41 50 68 85 94 97 98 100 100 100 100 99 98 98 99 98 96 96 96 95 95 94 93 92 95 98 100
75 73 72 71 69 69 69 70 73 78 83 89 95 98 100 100 99 97 94 89 88 90 92 94 94 93 88 83 78 67 57 54 54 52 51 49 46 42 39 36 34 31 28 25 26 29 30 30 30 30 30 30 30 31 32 34 36 36 36 44 61 80 91 95 97 98 99 99 99 99 98 97 99 98 97 98 98 96 95 95 93 91 93 96 98
83 81 81 81 81 82 84 86 90 93 96 98 99 100 99 97 94 90 88 88 90 92 92 90 88 85 78 72 65 58 54 54 53 51 50 48 43 40 37 35 34 34 30 27 27 29 30 31 31 30 30 30 31 31 31 32 34 34 33 39 54 72 85 92 96 97 98 99 99 99 98 97 99 99 97 98 98 96 95 96 95 92 94 96 95
93 92 91 91 92 93 94 96 98 99 99 99 99 98 95 90 88 89 90 90 89 86 82 79 78 74 67 62 58 56 55 55 53 51 48 45 41 39 37 35 35 33 29 27 29 30 30 31 32 31 31 30 30 29 29 30 33 32 30 36 50 65 77 86 93 96 97 98 99 98 97 97 99 99 97 96 97 96 96 97 96 93 94 96 95
96 97 97 97 97 98 99 99 99 98 98 97 96 93 89 87 89 91 89 86 83 81 76 72 68 63 59 57 57 56 56 55 53 50 46 42 40 37 36 35 34 30 27 28 31 31 31 33 34 33 32 30 27 27 27 29 31 30 28 34 46 58 67 77 87 93 96 98 98 98 97 96 98 100 98 98 98 97 97 98 98 94 93 96 96
94 96 97 97 97 98 97 97 97 97 96 95 95 93 92 92 92 90 87 84 81 75 69 63 60 59 58 58 57 56 55 53 50 46 43 40 38 37 35 34 31 27 26 31 34 34 34 35 35 33 31 28 25 25 26 27 29 29 28 32 42 52 59 67 77 86 92 96 97 97 97 97 98 100 100 99 99 98 98 99 100 98 95 94 95
92 93 94 94 94 95 96 96 96 97 96 95 95 94 93 90 87 83 80 77 72 65 61 59 59 59 58 57 56 55 52 49 46 42 39 37 37 37 34 31 27 25 28 33 36 34 34 34 34 32 30 27 25 25 26 26 27 27 27 29 39 47 54 59 66 74 85 93 96 96 97 97 97 99 100 98 98 98 97 97 99 100 97 93 92
93 93 93 93 93 93 93 93 93 93 94 95 94 91 86 81 77 74 71 68 64 62 61 61 60 59 58 57 55 52 48 44 41 37 35 36 37 36 33 29 26 26 30 34 36 34 32 30 30 30 30 28 27 28 28 27 26 25 24 28 36 43 49 53 57 63 73 83 91 94 95 96 96 98 99 98 97 98 98 97 99 101 98 93 90
94 94 94 94 94 94 93 92 91 90 90 89 86 82 77 72 69 67 66 65 64 63 62 61 60 58 56 54 51 48 43 39 37 35 36 39 38 35 32 29 27 27 30 33 34 32 29 27 28 29 30 29 29 31 31 29 27 23 22 26 34 41 44 47 51 55 61 70 81 88 92 94 95 96 97 97 97 98 99 99 100 100 100 97 94